Location: *
(51.4660°N, 0.3360°W)
Time: 09:45:15
(UTC+00:00)

SJ-6B - Pass Details

Date: 19 September 2019
Orbit: 509 x 583 km, 97.6° (Epoch: 14 October)

Event Time Altitude Azimuth Distance (km) Brightness Sun altitude
Exits shadow 20:02:12 - 186° (S) 2,121 5.6 -18.0°
Reaches altitude 10° 20:02:46 10° 188° (S) 1,896 5.4 -18.1°
Maximum altitude 20:06:43 44° 261° (W) 802 4.0 -18.7°
Drops below altitude 10° 20:10:39 10° 335° (NNW) 1,887 6.3 -19.2°
Sets 20:12:52 0° 342° (NNW) 2,779 7.1 -19.5°
